TimePST,TemperatureF,Dew PointF,Humidity,Sea Level PressureIn,VisibilityMPH,Wind Direction,Wind SpeedMPH,Gust SpeedMPH,PrecipitationIn,Events,Conditions,WindDirDegrees,DateUTC
12:56 AM,36.0,17.1,46,30.33,10.0,Calm,Calm,-,N/A,,Clear,0,2012-12-10 08:56:00
1:56 AM,36.0,18.1,48,30.33,10.0,Calm,Calm,-,N/A,,Clear,0,2012-12-10 09:56:00
2:56 AM,34.9,17.1,48,30.33,10.0,Calm,Calm,-,N/A,,Clear,0,2012-12-10 10:56:00
3:56 AM,32.9,17.1,52,30.32,10.0,Calm,Calm,-,N/A,,Clear,0,2012-12-10 11:56:00
4:56 AM,32.9,15.1,48,30.32,10.0,South,8.1,-,N/A,,Clear,170,2012-12-10 12:56:00
5:56 AM,32.0,17.1,54,30.34,10.0,Calm,Calm,-,N/A,,Clear,0,2012-12-10 13:56:00
6:56 AM,32.0,16.2,52,30.33,10.0,Calm,Calm,-,N/A,,Clear,0,2012-12-10 14:56:00
7:56 AM,36.9,18.1,47,30.33,10.0,SSE,4.6,-,N/A,,Clear,150,2012-12-10 15:56:00
8:56 AM,43.9,16.2,33,30.33,10.0,Calm,Calm,-,N/A,,Clear,0,2012-12-10 16:56:00
9:56 AM,46.9,16.2,29,30.33,10.0,Calm,Calm,-,N/A,,Clear,0,2012-12-10 17:56:00
10:56 AM,50.0,16.2,26,30.31,10.0,Calm,Calm,-,N/A,,Clear,0,2012-12-10 18:56:00
11:56 AM,50.0,17.1,27,30.27,10.0,Calm,Calm,-,N/A,,Clear,0,2012-12-10 19:56:00
12:56 PM,54.0,18.1,25,30.23,10.0,Calm,Calm,-,N/A,,Clear,0,2012-12-10 20:56:00
1:56 PM,52.9,18.1,26,30.20,10.0,Calm,Calm,-,N/A,,Clear,0,2012-12-10 21:56:00
2:56 PM,55.9,19.0,24,30.17,10.0,Calm,Calm,-,N/A,,Clear,0,2012-12-10 22:56:00
3:56 PM,54.9,21.0,27,30.17,10.0,Calm,Calm,-,N/A,,Clear,0,2012-12-10 23:56:00
4:56 PM,50.9,21.0,31,30.17,10.0,Calm,Calm,-,N/A,,Clear,0,2012-12-11 00:56:00
5:56 PM,46.9,21.0,36,30.17,10.0,Calm,Calm,-,N/A,,Clear,0,2012-12-11 01:56:00
6:56 PM,45.9,22.1,39,30.17,10.0,Calm,Calm,-,N/A,,Clear,0,2012-12-11 02:56:00
7:56 PM,43.0,20.1,40,30.17,10.0,South,5.8,-,N/A,,Clear,190,2012-12-11 03:56:00
8:56 PM,46.9,19.0,33,30.15,10.0,Calm,Calm,-,N/A,,Clear,0,2012-12-11 04:56:00
9:56 PM,41.0,22.1,47,30.16,10.0,SSE,6.9,-,N/A,,Clear,160,2012-12-11 05:56:00
10:56 PM,39.9,22.1,49,30.17,10.0,Calm,Calm,-,N/A,,Clear,0,2012-12-11 06:56:00
11:56 PM,37.9,21.0,51,30.16,10.0,SSE,6.9,-,N/A,,Clear,160,2012-12-11 07:56:00